THOR BURNER 2 R/B, 2422

Orbit data source: Space-Track

THOR BURNER 2 R/B, 2422 is space debris in SSO originally from a launch on Fri, 16 Sep 1966 UTC launched from the Air Force Western Test Range (AFWTR). Debris objects in space refer to the collection of defunct objects orbiting the Earth. Examples of debris include non-operational satellites, rocket bodies, and fragments generated from explosions, collisions, or faulty payload assembly.

Loading next visibility...
Identifier
2422, 1966-082B
Orbit
SSO
Country
Flag of USUS
Related business
Manufacturer
Thiokol/TE
Mission
Spacecraft
Bus & Motor
STAR 37, Unknown motor
Mass
136 kg wet, 136 kg dry
Launch date (UTC)
1966-09-16 (59 years ago)
Launch vehicle
Unknown
Launch site
Air Force Western Test Range (AFWTR)
Object type
Payload
Rocket body
Debris
Shape & HBR
Unknown
Radar Cross Section
Large (>1 m²)

Expand to show TLE details & history
Last TLE update: 13 hours ago

TLE from 13 hours ago
0 THOR BURNER 2 R/B
1 02422U 66082B   25351.91514006  .00000278  00000-0  83382-4 0  9999
2 02422  98.2175 146.7344 0111136  40.6617 320.2807 14.46576555 89063
Epoch: 2025-12-17T21:57Z
TLE epoch observation values (Epoch: 2025-12-17T21:57:48.101Z)
Latitude
-0.00005°
Longitude
90.50583°
Altitude
679.348 km
Speed
7.549 km/s
True Right ascension
09h 46m 56s
True Declination
0° 00' 00"
Sunlit
Object was in full shadow at epoch
Visualization orbit readout
Latitude
Unknown
Longitude
Unknown
Altitude
Unknown
Speed
Unknown
Apparent Right ascension
Unknown
Apparent Declination
Unknown
Sunlit
N/A
Visualization observer readout
Local Sidereal Time
10:15:41
Azimuth
Unknown
Elevation
Unknown
Doppler factor
Unknown
Orbital elements
Apogee altitude
812.992 km
Perigee altitude
654.91 km
Semi-major axis
7,112.088 km
Eccentricity
0.01111
Inclination
98.2175°
RAAN
146.7344°
Arg. of periapsis
40.6617°
True anomaly
319.45813°
Mean anomaly
320.2807°
Eccentric anomaly
319.87029°
Mean motion
3.61866 °/min
Orbital period
99.48 mins
BSTAR
0.000083382
Loading maneuver chart data...
Computing Atmospheric mass density...
Loading historical data...
Loading historical data...
Loading historical data...
Loading historical data...
Loading historical data...
Loading historical data...
Loading historical data...
Other satellites on launch #82 in the year 1966 (1966-09-16 UTC)

Documentation

Showing up to 5 results
|